sat.trackr.live / text

‹ back to catalog

STARLINK-36197

NORAD 67205 · 2025-304P

PAYLOAD ACTIVE UNKNOWN

§ Identity

Operator
Country
US
Launch date
2025-12-17
Launch site
AFWTR
Launch vehicle
Mass (kg)
RCS (m²)

Purposes: comms

External: N2YO · Heavens-Above · Gunter

§ Orbital elements

Epoch: 2026-09-19T09:29:52.896768Z

Period
96.11 min
Inclination
70.0017°
Eccentricity
0.0002721
Mean motion
14.98339243 rev/d
Perigee alt
570.1 km
Apogee alt
573.9 km
Semi-major
6,950.2 km
B*
8.0580e-5
RAAN
45.9037°
Arg perigee
266.1136°
Mean anomaly
93.9712°
Rev number
4,287

§ Raw data

STARLINK-361971 67205U 25304P   26262.39575112  .00000869  00000+0  80580-4 0  99922 67205  70.0017  45.9037 0002721 266.1136  93.9712 14.98339243 42870

JSON: /api/v1/satellites/67205 · /tle

For live sub-satellite position, see the globe view (requires WebGL).

§ Visibility from observer

Set your observer location to see the next 7 days of passes ≥ 10°. The values pass through the URL so the page stays shareable.

No JS? Fill the form by hand. The geolocation button needs JavaScript.